UAE706 FSIA-OMDB

Flight info

Callsign UAE706
Flight time N/A
Altitude 37000
Route DULMA1B DULMA T145 GEPAX DCT IMTIP UM314 SUHIL R401 PEDOG Q308 KIPOK Q568 IMPED
Aircraft B77W/H-SDE1E2E3FGHIJ2J3J4J5M1RWXY/LB1D1

Departure

Time 2026-04-27 04:44
Airport Seychelles International Airport (FSIA)

Arrival

Time N/A
Airport Dubai International Airport (OMDB)
Time Latitude Longitude Altitude Speed Heading
2026-04-27 04:26 -4.67067 55.51248 26 ft 0 kts 215°
2026-04-27 04:36 -4.67061 55.51252 26 ft 2 kts 215°
2026-04-27 04:36 -4.67049 55.51260 26 ft 2 kts 216°
2026-04-27 04:36 -4.67037 55.51269 26 ft 2 kts 218°
2026-04-27 04:37 -4.67027 55.51280 26 ft 2 kts 248°
2026-04-27 04:37 -4.67023 55.51295 26 ft 2 kts 272°
2026-04-27 04:37 -4.67026 55.51309 26 ft 2 kts 295°
2026-04-27 04:37 -4.67030 55.51316 26 ft 1 kts 306°
2026-04-27 04:38 -4.67031 55.51318 26 ft 0 kts 305°
2026-04-27 04:39 -4.67031 55.51317 26 ft 0 kts 305°
2026-04-27 04:40 -4.67012 55.51289 26 ft 7 kts 303°
2026-04-27 04:40 -4.66978 55.51239 26 ft 10 kts 303°
2026-04-27 04:40 -4.66911 55.51200 25 ft 12 kts 346°
2026-04-27 04:40 -4.66840 55.51147 24 ft 13 kts 304°
2026-04-27 04:41 -4.66807 55.51094 24 ft 3 kts 302°
2026-04-27 04:41 -4.66798 55.51083 24 ft 2 kts 308°
2026-04-27 04:41 -4.66775 55.51064 23 ft 6 kts 330°
2026-04-27 04:41 -4.66733 55.51054 23 ft 5 kts
2026-04-27 04:42 -4.66714 55.51061 23 ft 2 kts 32°
2026-04-27 04:42 -4.66693 55.51077 23 ft 3 kts 48°
2026-04-27 04:42 -4.66682 55.51097 23 ft 3 kts 75°
2026-04-27 04:42 -4.66684 55.51114 23 ft 3 kts 120°
2026-04-27 04:43 -4.66687 55.51118 23 ft 1 kts 123°
2026-04-27 04:43 -4.66800 55.51280 25 ft 63 kts 126°
2026-04-27 04:43 -4.67184 55.51828 26 ft 127 kts 126°
2026-04-27 04:43 -4.67776 55.52685 179 ft 166 kts 132°
2026-04-27 04:44 -4.68488 55.53635 874 ft 176 kts 132°
2026-04-27 04:44 -4.69126 55.54596 1819 ft 167 kts 131°
2026-04-27 04:44 -4.69830 55.55610 2165 ft 187 kts 131°
2026-04-27 04:44 -4.70616 55.56747 2535 ft 209 kts 128°
2026-04-27 04:45 -4.71497 55.57989 3020 ft 227 kts 127°
2026-04-27 04:45 -4.72451 55.59321 3550 ft 246 kts 124°
2026-04-27 04:45 -4.73416 55.60821 4124 ft 261 kts 111°
2026-04-27 04:45 -4.73807 55.62616 4683 ft 274 kts 86°
2026-04-27 04:46 -4.73316 55.64451 5354 ft 279 kts 58°
2026-04-27 04:46 -4.71981 55.65854 5995 ft 283 kts 28°
2026-04-27 04:46 -4.70130 55.66468 6726 ft 283 kts
2026-04-27 04:46 -4.68164 55.66708 7445 ft 288 kts
2026-04-27 04:47 -4.66151 55.66949 8113 ft 294 kts
2026-04-27 04:47 -4.64106 55.67194 8785 ft 299 kts
2026-04-27 04:47 -4.62017 55.67450 9602 ft 302 kts
2026-04-27 04:47 -4.59931 55.67697 10452 ft 307 kts
2026-04-27 04:48 -4.57758 55.67948 11056 ft 324 kts
2026-04-27 04:48 -4.55457 55.68213 11767 ft 338 kts
2026-04-27 04:48 -4.53070 55.68487 12187 ft 352 kts
2026-04-27 04:48 -4.50566 55.68776 12530 ft 367 kts
2026-04-27 04:49 -4.47976 55.69075 12906 ft 381 kts
2026-04-27 04:49 -4.45297 55.69384 13440 ft 390 kts
2026-04-27 04:49 -4.42593 55.69696 14227 ft 393 kts
2026-04-27 04:49 -4.39870 55.70011 14973 ft 397 kts
2026-04-27 04:50 -4.37088 55.70333 15636 ft 403 kts
2026-04-27 04:50 -4.34269 55.70658 16305 ft 409 kts
2026-04-27 04:50 -4.31452 55.70983 17007 ft 412 kts
2026-04-27 04:50 -4.28586 55.71314 17656 ft 416 kts
2026-04-27 04:51 -4.25688 55.71648 18237 ft 422 kts
2026-04-27 04:51 -4.22743 55.71988 18803 ft 428 kts
2026-04-27 04:51 -4.19756 55.72332 19368 ft 434 kts
2026-04-27 04:51 -4.16731 55.72677 19918 ft 439 kts
2026-04-27 04:52 -4.13658 55.73031 20478 ft 443 kts
2026-04-27 04:52 -4.10573 55.73388 21019 ft 448 kts
2026-04-27 04:52 -4.07428 55.73752 21545 ft 453 kts
2026-04-27 04:52 -4.04291 55.74114 22054 ft 457 kts
2026-04-27 04:53 -4.01091 55.74483 22564 ft 462 kts
2026-04-27 04:53 -3.97902 55.74851 23076 ft 466 kts
2026-04-27 04:53 -3.94653 55.75225 23652 ft 468 kts
2026-04-27 04:53 -3.91382 55.75602 24210 ft 471 kts
2026-04-27 04:54 -3.88124 55.75977 24699 ft 475 kts
2026-04-27 04:54 -3.84804 55.76360 25171 ft 479 kts
2026-04-27 04:54 -3.81464 55.76745 25663 ft 483 kts
2026-04-27 04:54 -3.78097 55.77132 26120 ft 487 kts
2026-04-27 04:55 -3.74716 55.77522 26619 ft 490 kts
2026-04-27 04:55 -3.71309 55.77914 27101 ft 494 kts
2026-04-27 04:55 -3.67910 55.78305 27540 ft 498 kts
2026-04-27 04:55 -3.64413 55.78708 28023 ft 500 kts
2026-04-27 04:56 -3.60938 55.79108 28512 ft 503 kts
2026-04-27 04:56 -3.57467 55.79507 28965 ft 506 kts
2026-04-27 04:56 -3.53963 55.79911 29533 ft 507 kts
2026-04-27 04:56 -3.50433 55.80316 30298 ft 503 kts
2026-04-27 04:57 -3.46979 55.80714 31165 ft 496 kts
2026-04-27 04:57 -3.43574 55.81106 31979 ft 490 kts
2026-04-27 04:57 -3.40208 55.81495 32683 ft 486 kts
2026-04-27 04:57 -3.36865 55.81891 33347 ft 483 kts
2026-04-27 04:58 -3.33506 55.82278 33939 ft 482 kts
2026-04-27 04:58 -3.30155 55.82663 34516 ft 480 kts
2026-04-27 04:58 -3.26781 55.83051 34908 ft 481 kts
2026-04-27 04:58 -3.23419 55.83437 34909 ft 481 kts
2026-04-27 04:59 -3.16750 55.84203 34910 ft 477 kts
2026-04-27 04:59 -3.10099 55.84968 34910 ft 478 kts
2026-04-27 05:00 -3.03493 55.85726 34909 ft 478 kts
2026-04-27 05:00 -2.96835 55.86491 34910 ft 479 kts
2026-04-27 05:01 -2.90197 55.87254 34909 ft 478 kts
2026-04-27 05:01 -2.83543 55.88018 34911 ft 478 kts
2026-04-27 05:02 -2.76922 55.88778 34910 ft 478 kts
2026-04-27 05:03 -2.66983 55.89920 34911 ft 479 kts
2026-04-27 05:03 -2.60329 55.90683 34911 ft 479 kts
2026-04-27 05:04 -2.53713 55.91443 34910 ft 478 kts
2026-04-27 05:04 -2.47060 55.92207 34911 ft 479 kts
2026-04-27 05:05 -2.40436 55.92967 34910 ft 478 kts
2026-04-27 05:05 -2.33821 55.93726 34910 ft 479 kts
2026-04-27 05:06 -2.27135 55.94494 34909 ft 479 kts
2026-04-27 05:06 -2.20529 55.95074 34909 ft 478 kts 358°
2026-04-27 05:07 -2.13931 55.94207 34909 ft 478 kts 349°
2026-04-27 05:07 -2.07386 55.92991 34908 ft 477 kts 349°
2026-04-27 05:08 -2.00813 55.91769 34909 ft 478 kts 349°
2026-04-27 05:08 -1.94284 55.90556 34908 ft 477 kts 349°
2026-04-27 05:09 -1.87740 55.89341 34910 ft 477 kts 349°
2026-04-27 05:09 -1.81180 55.88122 34907 ft 477 kts 349°
2026-04-27 05:10 -1.74634 55.86907 34902 ft 476 kts 349°
2026-04-27 05:10 -1.68112 55.85697 34897 ft 476 kts 349°
2026-04-27 05:11 -1.61600 55.84488 34896 ft 476 kts 349°
2026-04-27 05:11 -1.55058 55.83275 34897 ft 476 kts 349°
2026-04-27 05:12 -1.48504 55.82058 34892 ft 476 kts 349°
2026-04-27 05:12 -1.41981 55.80848 34890 ft 476 kts 349°
2026-04-27 05:13 -1.35450 55.79636 34890 ft 476 kts 349°
2026-04-27 05:13 -1.28893 55.78419 34894 ft 476 kts 349°
2026-04-27 05:14 -1.22389 55.77213 34902 ft 476 kts 349°
2026-04-27 05:14 -1.15829 55.75996 34909 ft 477 kts 349°
2026-04-27 05:15 -1.09316 55.74788 34910 ft 476 kts 349°
2026-04-27 05:15 -1.02756 55.73571 34909 ft 476 kts 349°
2026-04-27 05:16 -0.96255 55.72366 34910 ft 477 kts 349°
2026-04-27 05:16 -0.89675 55.71145 34909 ft 476 kts 349°
2026-04-27 05:17 -0.83163 55.69938 34910 ft 477 kts 349°
2026-04-27 05:17 -0.76582 55.68717 34910 ft 477 kts 350°
2026-04-27 05:18 -0.70061 55.67508 34910 ft 476 kts 349°
2026-04-27 05:18 -0.63543 55.66299 34910 ft 477 kts 349°
2026-04-27 05:19 -0.56973 55.65080 34910 ft 476 kts 350°
2026-04-27 05:19 -0.50427 55.63866 34909 ft 477 kts 350°
2026-04-27 05:20 -0.43909 55.62658 34910 ft 477 kts 350°
2026-04-27 05:20 -0.37336 55.61439 34910 ft 477 kts 350°
2026-04-27 05:21 -0.30804 55.60228 34911 ft 477 kts 350°
2026-04-27 05:21 -0.24220 55.59007 34909 ft 478 kts 350°
2026-04-27 05:22 -0.17709 55.57800 34911 ft 477 kts 350°
2026-04-27 05:22 -0.11110 55.56576 34910 ft 478 kts 350°
2026-04-27 05:23 -0.04609 55.55370 34910 ft 477 kts 350°
2026-04-27 05:23 0.01942 55.54156 34909 ft 477 kts 350°
2026-04-27 05:24 0.08501 55.52940 34910 ft 479 kts 350°
2026-04-27 05:24 0.15071 55.51722 34911 ft 480 kts 350°
2026-04-27 05:25 0.21639 55.50503 34911 ft 478 kts 350°
2026-04-27 05:25 0.28240 55.49280 34911 ft 479 kts 350°
2026-04-27 05:26 0.34804 55.48063 34911 ft 479 kts 350°
2026-04-27 05:26 0.41390 55.46841 34912 ft 479 kts 350°
2026-04-27 05:27 0.47932 55.45628 34911 ft 480 kts 350°
2026-04-27 05:27 0.54562 55.44398 34911 ft 481 kts 350°
2026-04-27 05:28 0.61158 55.43176 34915 ft 481 kts 350°
2026-04-27 05:28 0.67722 55.41958 34919 ft 481 kts 350°
2026-04-27 05:29 0.74357 55.40728 34924 ft 481 kts 349°
2026-04-27 05:29 0.80934 55.39508 34928 ft 482 kts 350°
2026-04-27 05:30 0.87546 55.38282 34929 ft 481 kts 349°
2026-04-27 05:30 0.94164 55.37054 34931 ft 482 kts 349°
2026-04-27 05:31 1.00757 55.35831 34932 ft 482 kts 349°
2026-04-27 05:31 1.07376 55.34604 34929 ft 481 kts 349°
2026-04-27 05:32 1.13971 55.33380 34930 ft 482 kts 349°
2026-04-27 05:32 1.20597 55.32151 34931 ft 484 kts 349°
2026-04-27 05:33 1.27259 55.30915 34930 ft 483 kts 349°
2026-04-27 05:33 1.33871 55.29720 34922 ft 484 kts 353°
2026-04-27 05:34 1.40667 55.29158 34935 ft 486 kts 355°
2026-04-27 05:34 1.47393 55.28674 34934 ft 485 kts 355°
2026-04-27 05:35 1.54132 55.28187 34929 ft 485 kts 355°
2026-04-27 05:35 1.60915 55.27695 34931 ft 487 kts 355°
2026-04-27 05:36 1.67695 55.27202 34930 ft 487 kts 355°
2026-04-27 05:36 1.74454 55.26709 34929 ft 487 kts 355°
2026-04-27 05:37 1.81233 55.26216 34938 ft 487 kts 355°
2026-04-27 05:37 1.88008 55.25722 34934 ft 487 kts 355°
2026-04-27 05:38 1.94800 55.25226 34931 ft 488 kts 355°
2026-04-27 05:38 2.01618 55.24729 34932 ft 489 kts 355°
2026-04-27 05:39 2.08423 55.24233 34932 ft 488 kts 355°
2026-04-27 05:39 2.15197 55.23738 34930 ft 488 kts 355°
2026-04-27 05:40 2.22031 55.23240 34933 ft 489 kts 355°
2026-04-27 05:40 2.28844 55.22743 34934 ft 488 kts 355°
2026-04-27 05:41 2.35642 55.22247 34930 ft 490 kts 355°
2026-04-27 05:41 2.42433 55.21752 34930 ft 489 kts 355°
2026-04-27 05:42 2.49262 55.21254 34929 ft 490 kts 355°
2026-04-27 05:42 2.56080 55.20756 34927 ft 490 kts 355°
2026-04-27 05:43 2.62900 55.20258 34926 ft 489 kts 355°
2026-04-27 05:43 2.69695 55.19762 34926 ft 490 kts 355°
2026-04-27 05:44 2.76497 55.19266 34931 ft 490 kts 355°
2026-04-27 05:44 2.83346 55.18766 34926 ft 491 kts 355°
2026-04-27 05:45 2.90163 55.18268 34925 ft 492 kts 355°
2026-04-27 05:45 2.97027 55.17767 34929 ft 493 kts 355°
2026-04-27 05:46 3.03876 55.17267 34926 ft 491 kts 355°
2026-04-27 05:46 3.10718 55.16767 34926 ft 492 kts 355°
2026-04-27 05:47 3.17532 55.16269 34914 ft 491 kts 355°
2026-04-27 05:47 3.24384 55.15768 34911 ft 490 kts 355°
2026-04-27 05:48 3.31238 55.15267 34921 ft 491 kts 355°
2026-04-27 05:48 3.38053 55.14769 34929 ft 493 kts 355°
2026-04-27 05:49 3.44932 55.14266 34930 ft 492 kts 355°
2026-04-27 05:49 3.51749 55.13768 34930 ft 494 kts 355°
2026-04-27 05:50 3.58634 55.13264 34930 ft 490 kts 355°
2026-04-27 05:50 3.65461 55.12766 34931 ft 490 kts 355°
2026-04-27 05:51 3.72281 55.12267 34930 ft 491 kts 355°
2026-04-27 05:51 3.79142 55.11765 34931 ft 493 kts 355°
2026-04-27 05:52 3.85961 55.11266 34933 ft 493 kts 355°
2026-04-27 05:52 3.92831 55.10763 34931 ft 492 kts 355°
2026-04-27 05:53 3.99678 55.10262 34932 ft 492 kts 355°
2026-04-27 05:53 4.06509 55.09762 34936 ft 491 kts 355°
2026-04-27 05:54 4.13399 55.09258 34930 ft 492 kts 355°
2026-04-27 05:54 4.20222 55.08759 34930 ft 490 kts 355°
2026-04-27 05:55 4.27086 55.08257 34929 ft 493 kts 355°
2026-04-27 05:55 4.33929 55.07756 34930 ft 494 kts 355°
2026-04-27 05:56 4.40796 55.07253 34938 ft 494 kts 355°
2026-04-27 05:56 4.47642 55.06752 34935 ft 495 kts 355°
2026-04-27 05:57 4.54554 55.06245 34932 ft 494 kts 355°
2026-04-27 05:57 4.61415 55.05743 34935 ft 494 kts 355°
2026-04-27 05:58 4.68298 55.05239 34932 ft 492 kts 355°
2026-04-27 05:58 4.75158 55.04736 34930 ft 496 kts 354°
2026-04-27 05:59 4.82021 55.04234 34930 ft 493 kts 354°
2026-04-27 05:59 4.88907 55.03729 34935 ft 495 kts 354°
2026-04-27 06:00 4.99236 55.02972 34939 ft 495 kts 354°
2026-04-27 06:00 5.06117 55.02467 34931 ft 495 kts 354°
2026-04-27 06:01 5.13010 55.01962 34927 ft 497 kts 354°
2026-04-27 06:01 5.19918 55.01455 34923 ft 493 kts 354°
2026-04-27 06:02 5.26804 55.00950 34912 ft 495 kts 354°
2026-04-27 06:02 5.33713 55.00442 34921 ft 497 kts 354°
2026-04-27 06:03 5.40665 54.99934 34926 ft 498 kts 355°
2026-04-27 06:03 5.47571 54.99900 34932 ft 500 kts 359°
2026-04-27 06:04 5.54553 54.99946 34927 ft 499 kts 359°
2026-04-27 06:04 5.61522 54.99971 34929 ft 496 kts 359°
2026-04-27 06:05 5.68454 54.99983 34933 ft 500 kts 359°
2026-04-27 06:05 5.75407 54.99991 34931 ft 499 kts 359°
2026-04-27 06:06 5.82359 54.99995 34928 ft 498 kts 359°
2026-04-27 06:06 5.89336 54.99997 34925 ft 500 kts 359°
2026-04-27 06:07 5.96282 54.99999 34916 ft 499 kts 359°
2026-04-27 06:07 6.03308 54.99999 34918 ft 499 kts 359°
2026-04-27 06:08 6.10241 55.00000 34919 ft 499 kts 359°
2026-04-27 06:08 6.17187 55.00000 34910 ft 498 kts 359°
2026-04-27 06:09 6.24118 55.00000 34928 ft 499 kts 359°
2026-04-27 06:09 6.31093 55.00000 34931 ft 498 kts 359°
2026-04-27 06:10 6.38012 55.00000 34925 ft 496 kts
2026-04-27 06:10 6.44939 55.00000 34934 ft 493 kts
2026-04-27 06:11 6.51867 55.00000 34928 ft 495 kts
2026-04-27 06:11 6.58732 55.00000 34928 ft 490 kts
2026-04-27 06:12 6.65559 55.00000 34931 ft 488 kts
2026-04-27 06:12 6.72342 55.00000 34933 ft 485 kts
2026-04-27 06:13 6.79087 55.00000 34926 ft 482 kts
2026-04-27 06:13 6.85776 55.00000 34925 ft 480 kts
2026-04-27 06:14 6.92503 55.00000 34936 ft 480 kts
2026-04-27 06:14 6.99198 55.00000 34928 ft 480 kts
2026-04-27 06:15 7.05872 55.00000 34921 ft 480 kts
2026-04-27 06:15 7.12566 55.00000 34931 ft 477 kts
2026-04-27 06:16 7.19219 55.00000 34931 ft 476 kts
2026-04-27 06:16 7.25857 55.00000 34930 ft 478 kts
2026-04-27 06:17 7.32516 55.00000 34926 ft 477 kts
2026-04-27 06:17 7.39123 55.00000 34929 ft 473 kts
2026-04-27 06:18 7.45740 55.00000 34928 ft 473 kts
2026-04-27 06:18 7.52368 55.00000 34923 ft 474 kts
2026-04-27 06:19 7.58924 55.00000 34927 ft 471 kts
2026-04-27 06:19 7.65506 54.99999 34933 ft 471 kts
2026-04-27 06:20 7.72094 54.99999 34926 ft 472 kts
2026-04-27 06:20 7.78649 55.00000 34928 ft 468 kts
2026-04-27 06:21 7.85156 55.00000 34926 ft 466 kts
2026-04-27 06:21 7.91685 55.00000 34921 ft 468 kts
2026-04-27 06:22 7.98158 55.00000 34908 ft 466 kts
2026-04-27 06:22 8.04674 55.00000 34910 ft 465 kts
2026-04-27 06:23 8.11145 55.00000 34912 ft 464 kts
2026-04-27 06:23 8.17646 55.00000 34911 ft 465 kts
2026-04-27 06:24 8.24155 55.00000 34915 ft 466 kts
2026-04-27 06:24 8.30621 55.00000 34915 ft 463 kts
2026-04-27 06:25 8.37072 55.00000 34913 ft 462 kts
2026-04-27 06:25 8.43540 55.00000 34920 ft 463 kts
2026-04-27 06:26 8.49941 55.00000 34918 ft 460 kts
2026-04-27 06:26 8.56363 55.00000 34924 ft 461 kts
2026-04-27 06:27 8.62788 55.00000 34932 ft 461 kts
2026-04-27 06:27 8.69246 55.00000 34933 ft 459 kts
2026-04-27 06:28 8.75621 55.00000 34927 ft 458 kts
2026-04-27 06:28 8.82048 55.00000 34934 ft 460 kts
2026-04-27 06:29 8.88416 55.00000 34924 ft 457 kts
2026-04-27 06:29 8.94835 55.00000 34935 ft 457 kts
2026-04-27 06:30 9.01156 55.00000 34925 ft 456 kts
2026-04-27 06:30 9.07553 55.00000 34925 ft 458 kts
2026-04-27 06:31 9.13930 55.00000 34929 ft 457 kts
2026-04-27 06:31 9.20281 55.00000 34930 ft 456 kts
2026-04-27 06:32 9.26605 55.00000 34928 ft 452 kts
2026-04-27 06:32 9.32967 55.00000 34928 ft 456 kts
2026-04-27 06:33 9.39282 55.00000 34931 ft 453 kts
2026-04-27 06:33 9.45621 55.00000 34931 ft 454 kts
2026-04-27 06:34 9.51940 55.00000 34930 ft 452 kts
2026-04-27 06:34 9.58276 55.00000 34927 ft 454 kts
2026-04-27 06:35 9.64567 55.00000 34925 ft 452 kts
2026-04-27 06:35 9.70870 55.00000 34925 ft 452 kts
2026-04-27 06:36 9.77166 55.00000 34929 ft 451 kts
2026-04-27 06:36 9.83453 55.00000 34927 ft 450 kts
2026-04-27 06:37 9.89756 55.00000 34923 ft 452 kts
2026-04-27 06:37 9.96061 55.00000 34928 ft 448 kts
2026-04-27 06:38 10.02307 55.00000 34926 ft 449 kts
2026-04-27 06:38 10.08569 55.00000 34924 ft 450 kts
2026-04-27 06:39 10.14857 55.00000 34934 ft 450 kts
2026-04-27 06:39 10.21147 55.00000 34927 ft 450 kts
2026-04-27 06:40 10.27412 55.00000 34919 ft 449 kts
2026-04-27 06:40 10.33695 55.00000 34915 ft 450 kts
2026-04-27 06:41 10.39936 55.00000 34910 ft 450 kts
2026-04-27 06:41 10.46242 54.99999 34910 ft 450 kts
2026-04-27 06:42 10.52508 55.00000 34909 ft 451 kts
2026-04-27 06:42 10.58833 55.00000 34909 ft 451 kts
2026-04-27 06:43 10.65137 55.00000 34908 ft 451 kts
2026-04-27 06:43 10.71413 55.00000 34909 ft 451 kts
2026-04-27 06:44 10.77688 55.00000 34906 ft 450 kts
2026-04-27 06:44 10.84005 55.00000 34908 ft 451 kts
2026-04-27 06:45 10.90280 55.00000 34911 ft 452 kts
2026-04-27 06:45 10.96574 55.00000 34908 ft 451 kts
2026-04-27 06:46 11.02862 55.00000 34906 ft 451 kts
2026-04-27 06:46 11.09166 55.00000 34913 ft 452 kts
2026-04-27 06:47 11.15479 55.00000 34930 ft 452 kts
2026-04-27 06:47 11.21774 55.00000 34928 ft 452 kts
2026-04-27 06:48 11.28096 55.00000 34927 ft 452 kts
2026-04-27 06:48 11.34413 55.00000 34927 ft 452 kts
2026-04-27 06:49 11.40724 54.99999 34929 ft 452 kts
2026-04-27 06:49 11.47036 55.00000 34929 ft 453 kts
2026-04-27 06:50 11.53363 55.00000 34930 ft 453 kts
2026-04-27 06:50 11.59645 55.00000 34927 ft 454 kts
2026-04-27 06:51 11.65979 55.00000 34927 ft 455 kts
2026-04-27 06:51 11.72328 55.00000 34927 ft 454 kts
2026-04-27 06:52 11.78682 55.00000 34926 ft 454 kts
2026-04-27 06:52 11.84982 55.00001 34928 ft 454 kts
2026-04-27 06:53 11.91352 55.00000 34927 ft 456 kts
2026-04-27 06:53 11.97721 55.00000 34927 ft 455 kts
2026-04-27 06:54 12.03978 55.00483 34926 ft 452 kts 10°
2026-04-27 06:54 12.10276 55.01271 34928 ft 452 kts 10°
2026-04-27 06:55 12.16516 55.02050 34931 ft 452 kts 10°
2026-04-27 06:55 12.22787 55.02832 34930 ft 452 kts 10°
2026-04-27 06:56 12.29027 55.03610 34933 ft 453 kts 10°
2026-04-27 06:56 12.35316 55.04394 34928 ft 452 kts 10°
2026-04-27 06:57 12.41593 55.05177 34928 ft 453 kts 10°
2026-04-27 06:57 12.47843 55.05956 34926 ft 452 kts 10°
2026-04-27 06:58 12.57248 55.07129 34925 ft 453 kts 10°
2026-04-27 06:59 12.63505 55.07910 34924 ft 453 kts 10°
2026-04-27 06:59 12.69788 55.08695 34922 ft 453 kts 10°
2026-04-27 07:00 12.76053 55.09478 34909 ft 453 kts 10°
2026-04-27 07:00 12.82322 55.10262 34904 ft 454 kts 10°
2026-04-27 07:01 12.88615 55.11049 34905 ft 454 kts 10°
2026-04-27 07:01 12.94897 55.11836 34905 ft 454 kts 10°
2026-04-27 07:02 13.01179 55.12622 34903 ft 453 kts 10°
2026-04-27 07:02 13.07463 55.13409 34904 ft 454 kts 10°
2026-04-27 07:03 13.13740 55.14196 34910 ft 454 kts 10°
2026-04-27 07:03 13.20029 55.14984 34911 ft 454 kts 10°
2026-04-27 07:04 13.26306 55.15772 34909 ft 455 kts 10°
2026-04-27 07:04 13.32589 55.16561 34909 ft 454 kts 10°
2026-04-27 07:05 13.38911 55.17355 34909 ft 456 kts 10°
2026-04-27 07:05 13.45182 55.18143 34908 ft 455 kts 10°
2026-04-27 07:06 13.51477 55.18935 34908 ft 455 kts
2026-04-27 07:06 13.57773 55.19727 34907 ft 454 kts
2026-04-27 07:07 13.64059 55.20518 34906 ft 455 kts
2026-04-27 07:07 13.70377 55.21314 34906 ft 455 kts
2026-04-27 07:08 13.76684 55.22109 34906 ft 456 kts
2026-04-27 07:08 13.82997 55.22904 34905 ft 456 kts
2026-04-27 07:09 13.89301 55.23700 34905 ft 455 kts
2026-04-27 07:09 13.95589 55.24484 34905 ft 455 kts
2026-04-27 07:10 14.01899 55.25265 34904 ft 456 kts
2026-04-27 07:10 14.08199 55.26046 34904 ft 455 kts
2026-04-27 07:11 14.14503 55.26828 34910 ft 456 kts
2026-04-27 07:11 14.20802 55.27610 34911 ft 456 kts
2026-04-27 07:12 14.27130 55.28397 34911 ft 455 kts
2026-04-27 07:12 14.33412 55.29178 34910 ft 455 kts
2026-04-27 07:13 14.39736 55.29964 34916 ft 455 kts
2026-04-27 07:13 14.46010 55.30745 34917 ft 455 kts
2026-04-27 07:14 14.52329 55.31533 34916 ft 455 kts
2026-04-27 07:14 14.58640 55.32319 34915 ft 456 kts
2026-04-27 07:15 14.64944 55.33105 34916 ft 455 kts
2026-04-27 07:15 14.71238 55.33890 34920 ft 455 kts
2026-04-27 07:16 14.77543 55.34678 34917 ft 455 kts
2026-04-27 07:16 14.83839 55.35464 34913 ft 455 kts
2026-04-27 07:17 14.90117 55.36249 34908 ft 456 kts
2026-04-27 07:17 14.96445 55.37040 34909 ft 456 kts
2026-04-27 07:18 15.02767 55.37831 34908 ft 456 kts
2026-04-27 07:18 15.09094 55.38623 34900 ft 455 kts
2026-04-27 07:19 15.15358 55.39408 34908 ft 455 kts
2026-04-27 07:19 15.21649 55.40193 34907 ft 455 kts
2026-04-27 07:20 15.27951 55.40968 34906 ft 454 kts
2026-04-27 07:20 15.34271 55.41747 34904 ft 455 kts
2026-04-27 07:21 15.40556 55.42522 34903 ft 455 kts
2026-04-27 07:21 15.46847 55.43298 34905 ft 454 kts
2026-04-27 07:22 15.53140 55.44076 34902 ft 454 kts
2026-04-27 07:22 15.59404 55.44850 34904 ft 453 kts
2026-04-27 07:23 15.65679 55.45626 34907 ft 454 kts
2026-04-27 07:23 15.71941 55.46401 34906 ft 453 kts
2026-04-27 07:24 15.78251 55.47183 34907 ft 453 kts
2026-04-27 07:24 15.84523 55.47960 34905 ft 454 kts
2026-04-27 07:25 15.90775 55.48735 34906 ft 453 kts
2026-04-27 07:25 15.97054 55.49514 34905 ft 453 kts
2026-04-27 07:26 16.03308 55.50291 34897 ft 452 kts
2026-04-27 07:26 16.09566 55.51068 34901 ft 453 kts
2026-04-27 07:27 16.15846 55.51849 34903 ft 453 kts
2026-04-27 07:27 16.22123 55.52629 34903 ft 453 kts
2026-04-27 07:28 16.28393 55.53410 34896 ft 452 kts
2026-04-27 07:28 16.34632 55.54187 34897 ft 452 kts
2026-04-27 07:29 16.40897 55.54968 34898 ft 452 kts
2026-04-27 07:29 16.47147 55.55747 34899 ft 451 kts
2026-04-27 07:30 16.53407 55.56528 34898 ft 452 kts
2026-04-27 07:30 16.59697 55.57314 34895 ft 452 kts
2026-04-27 07:31 16.65922 55.58091 34891 ft 451 kts
2026-04-27 07:31 16.72141 55.58869 34888 ft 451 kts
2026-04-27 07:32 16.78400 55.59652 34887 ft 451 kts
2026-04-27 07:32 16.84633 55.60432 34885 ft 451 kts
2026-04-27 07:33 16.90900 55.61219 34884 ft 451 kts
2026-04-27 07:33 16.97164 55.62014 34883 ft 451 kts
2026-04-27 07:34 17.03370 55.62803 34884 ft 450 kts
2026-04-27 07:34 17.09636 55.63600 34880 ft 451 kts
2026-04-27 07:35 17.15873 55.64394 34888 ft 451 kts
2026-04-27 07:35 17.22118 55.65189 34887 ft 451 kts
2026-04-27 07:36 17.28354 55.65983 34883 ft 451 kts
2026-04-27 07:36 17.34590 55.66778 34883 ft 451 kts
2026-04-27 07:37 17.40794 55.67570 34878 ft 450 kts
2026-04-27 07:37 17.47049 55.68368 34878 ft 451 kts
2026-04-27 07:38 17.53279 55.69163 34878 ft 451 kts
2026-04-27 07:38 17.59519 55.69962 34875 ft 451 kts
2026-04-27 07:39 17.65744 55.70757 34872 ft 451 kts
2026-04-27 07:39 17.72007 55.71558 34869 ft 450 kts
2026-04-27 07:40 17.78206 55.72352 34869 ft 450 kts
2026-04-27 07:40 17.84455 55.73153 34881 ft 450 kts
2026-04-27 07:41 17.90668 55.73950 34897 ft 451 kts
2026-04-27 07:41 17.96896 55.74749 34910 ft 451 kts
2026-04-27 07:42 18.03088 55.76165 34918 ft 452 kts 13°
2026-04-27 07:42 18.09174 55.77781 34916 ft 452 kts 13°
2026-04-27 07:43 18.15293 55.79404 34925 ft 452 kts 13°
2026-04-27 07:43 18.21416 55.81027 34921 ft 452 kts 13°
2026-04-27 07:44 18.27499 55.82641 34920 ft 452 kts 13°
2026-04-27 07:44 18.33618 55.84264 34916 ft 453 kts 13°
2026-04-27 07:45 18.39738 55.85889 34913 ft 453 kts 13°
2026-04-27 07:45 18.45849 55.87512 34910 ft 452 kts 12°
2026-04-27 07:46 18.51962 55.89137 34907 ft 453 kts 12°
2026-04-27 07:46 18.58079 55.90764 34905 ft 454 kts 13°
2026-04-27 07:47 18.64202 55.92394 34903 ft 453 kts 13°
2026-04-27 07:47 18.70346 55.94031 34900 ft 454 kts 12°
2026-04-27 07:48 18.76477 55.95666 34900 ft 453 kts 12°
2026-04-27 07:48 18.82582 55.97295 34897 ft 453 kts 12°
2026-04-27 07:49 18.88728 55.98935 34894 ft 455 kts 12°
2026-04-27 07:49 18.94864 56.00575 34892 ft 455 kts 12°
2026-04-27 07:50 19.01027 56.02224 34888 ft 455 kts 12°
2026-04-27 07:50 19.07147 56.03862 34893 ft 455 kts 12°
2026-04-27 07:51 19.13325 56.05518 34908 ft 455 kts 12°
2026-04-27 07:51 19.19465 56.07164 34903 ft 455 kts 12°
2026-04-27 07:52 19.25605 56.08812 34900 ft 455 kts 12°
2026-04-27 07:52 19.31758 56.10465 34899 ft 455 kts 12°
2026-04-27 07:53 19.37913 56.12120 34892 ft 455 kts 12°
2026-04-27 07:53 19.44028 56.13765 34886 ft 455 kts 12°
2026-04-27 07:54 19.50209 56.15429 34877 ft 455 kts 12°
2026-04-27 07:54 19.56347 56.17083 34873 ft 455 kts 12°
2026-04-27 07:55 19.62503 56.18742 34871 ft 457 kts 12°
2026-04-27 07:55 19.68666 56.20405 34870 ft 456 kts 12°
2026-04-27 07:56 19.74828 56.22069 34867 ft 455 kts 12°
2026-04-27 07:56 19.80996 56.23737 34866 ft 456 kts 12°
2026-04-27 07:57 19.87124 56.25394 34869 ft 456 kts 12°
2026-04-27 07:57 19.93277 56.27060 34867 ft 455 kts 12°
2026-04-27 07:58 19.99507 56.28079 34863 ft 453 kts 359°
2026-04-27 07:58 20.05835 56.28110 34868 ft 452 kts 358°
2026-04-27 07:59 20.12118 56.28121 34875 ft 452 kts 358°
2026-04-27 07:59 20.21593 56.28141 34878 ft 452 kts 358°
2026-04-27 08:00 20.27909 56.28155 34878 ft 452 kts 358°
2026-04-27 08:00 20.34209 56.28170 34875 ft 453 kts 358°
2026-04-27 08:01 20.40511 56.28186 34871 ft 453 kts 358°
2026-04-27 08:01 20.46836 56.28201 34869 ft 453 kts 358°
2026-04-27 08:02 20.53138 56.28217 34862 ft 453 kts 358°
2026-04-27 08:02 20.59405 56.27685 34864 ft 450 kts 350°
2026-04-27 08:03 20.65632 56.26780 34859 ft 451 kts 350°
2026-04-27 08:03 20.71867 56.25874 34859 ft 451 kts 350°
2026-04-27 08:04 20.78112 56.24968 34860 ft 450 kts 350°
2026-04-27 08:04 20.84318 56.24067 34858 ft 451 kts 350°
2026-04-27 08:05 20.90552 56.23163 34858 ft 451 kts 350°
2026-04-27 08:05 20.96786 56.22257 34854 ft 451 kts 350°
2026-04-27 08:06 21.02974 56.21358 34850 ft 450 kts 350°
2026-04-27 08:06 21.09222 56.20449 34846 ft 450 kts 350°
2026-04-27 08:07 21.15423 56.19546 34850 ft 450 kts 350°
2026-04-27 08:07 21.21627 56.18642 34846 ft 451 kts 350°
2026-04-27 08:08 21.27878 56.17730 34842 ft 451 kts 349°
2026-04-27 08:08 21.34076 56.16822 34833 ft 450 kts 349°
2026-04-27 08:09 21.40319 56.15906 34825 ft 451 kts 349°
2026-04-27 08:09 21.46516 56.14996 34820 ft 450 kts 349°
2026-04-27 08:10 21.52747 56.14080 34820 ft 450 kts 349°
2026-04-27 08:10 21.58959 56.13166 34820 ft 450 kts 349°
2026-04-27 08:11 21.65153 56.12255 34820 ft 450 kts 349°
2026-04-27 08:11 21.71381 56.11337 34820 ft 451 kts 349°
2026-04-27 08:12 21.77615 56.10418 34821 ft 451 kts 349°
2026-04-27 08:12 21.83836 56.09500 34814 ft 451 kts 349°
2026-04-27 08:13 21.90048 56.08583 34807 ft 451 kts 349°
2026-04-27 08:13 21.96290 56.07660 34806 ft 450 kts 349°
2026-04-27 08:14 22.02496 56.06741 34809 ft 450 kts 349°
2026-04-27 08:14 22.08711 56.05822 34807 ft 451 kts 349°
2026-04-27 08:15 22.14927 56.04902 34816 ft 451 kts 349°
2026-04-27 08:15 22.21165 56.03979 34818 ft 451 kts 349°
2026-04-27 08:16 22.27372 56.03058 34816 ft 451 kts 349°
2026-04-27 08:16 22.33629 56.02129 34820 ft 451 kts 349°
2026-04-27 08:17 22.39851 56.01206 34820 ft 451 kts 349°
2026-04-27 08:17 22.46061 56.00290 34824 ft 452 kts 349°
2026-04-27 08:18 22.52299 55.99368 34820 ft 452 kts 349°
2026-04-27 08:18 22.58544 55.98445 34827 ft 452 kts 349°
2026-04-27 08:19 22.64789 55.97522 34841 ft 453 kts 348°
2026-04-27 08:19 22.71011 55.96600 34845 ft 452 kts 348°
2026-04-27 08:20 22.77264 55.95673 34844 ft 453 kts 348°
2026-04-27 08:20 22.83507 55.94745 34846 ft 452 kts 348°
2026-04-27 08:21 22.89754 55.93811 34846 ft 453 kts 348°
2026-04-27 08:21 22.96008 55.92874 34849 ft 453 kts 348°
2026-04-27 08:22 23.02275 55.91935 34852 ft 455 kts 348°
2026-04-27 08:22 23.08556 55.90991 34853 ft 453 kts 348°
2026-04-27 08:23 23.14820 55.90046 34860 ft 454 kts 348°
2026-04-27 08:23 23.21060 55.89105 34860 ft 454 kts 348°
2026-04-27 08:24 23.27313 55.88161 34864 ft 454 kts 348°
2026-04-27 08:24 23.33597 55.87211 34864 ft 454 kts 348°
2026-04-27 08:25 23.39866 55.86263 34865 ft 455 kts 348°
2026-04-27 08:25 23.46166 55.85309 34871 ft 454 kts 348°
2026-04-27 08:26 23.52398 55.84364 34866 ft 454 kts 348°
2026-04-27 08:26 23.58704 55.83408 34868 ft 454 kts 348°
2026-04-27 08:27 23.64980 55.82452 34870 ft 455 kts 348°
2026-04-27 08:27 23.71276 55.81842 34870 ft 460 kts 357°
2026-04-27 08:28 23.77698 55.82440 34691 ft 463 kts
2026-04-27 08:28 23.80899 55.82778 34825 ft 465 kts
2026-04-27 08:28 23.84188 55.83123 34833 ft 471 kts
2026-04-27 08:29 23.87447 55.83466 35026 ft 469 kts
2026-04-27 08:29 23.90671 55.83806 35047 ft 464 kts
2026-04-27 08:29 23.93876 55.84145 34871 ft 456 kts
2026-04-27 08:29 23.97029 55.84476 34841 ft 457 kts
2026-04-27 08:30 24.03418 55.85143 34825 ft 461 kts
2026-04-27 08:30 24.09778 55.85810 34818 ft 460 kts
2026-04-27 08:31 24.16191 55.86482 34836 ft 461 kts
2026-04-27 08:31 24.22600 55.87156 34855 ft 461 kts
2026-04-27 08:32 24.28886 55.87822 34854 ft 439 kts
2026-04-27 08:32 24.31868 55.88191 34839 ft 425 kts
2026-04-27 08:32 24.34734 55.88883 34821 ft 415 kts 12°
2026-04-27 08:33 24.39693 55.91776 34763 ft 398 kts 33°
2026-04-27 08:33 24.41775 55.93747 34516 ft 393 kts 35°
2026-04-27 08:33 24.43816 55.95752 33962 ft 397 kts 35°
2026-04-27 08:34 24.45848 55.97759 33403 ft 399 kts 36°
2026-04-27 08:34 24.47918 55.99815 32963 ft 395 kts 36°
2026-04-27 08:34 24.49931 56.01819 32546 ft 389 kts 36°
2026-04-27 08:34 24.51923 56.03804 32059 ft 387 kts 36°
2026-04-27 08:35 24.53894 56.05770 31521 ft 386 kts 36°
2026-04-27 08:35 24.55891 56.07769 31003 ft 384 kts 36°
2026-04-27 08:35 24.57865 56.09725 30531 ft 380 kts 32°
2026-04-27 08:35 24.59993 56.11314 30029 ft 369 kts 20°
2026-04-27 08:36 24.62335 56.12335 29490 ft 358 kts
2026-04-27 08:36 24.64754 56.12903 28993 ft 354 kts
2026-04-27 08:36 24.67172 56.13398 28549 ft 351 kts
2026-04-27 08:36 24.69581 56.13871 28106 ft 349 kts
2026-04-27 08:37 24.71946 56.14319 27652 ft 348 kts
2026-04-27 08:37 24.74343 56.14766 27186 ft 347 kts
2026-04-27 08:37 24.76702 56.15203 26757 ft 344 kts
2026-04-27 08:37 24.79067 56.15277 26284 ft 330 kts 343°
2026-04-27 08:38 24.81235 56.14629 25827 ft 321 kts 334°
2026-04-27 08:38 24.83295 56.13730 25432 ft 315 kts 331°
2026-04-27 08:38 24.85274 56.12783 25035 ft 312 kts 330°
2026-04-27 08:38 24.87257 56.11812 24607 ft 310 kts 330°
2026-04-27 08:39 24.89227 56.10842 24166 ft 308 kts 330°
2026-04-27 08:39 24.91176 56.09882 23729 ft 306 kts 330°
2026-04-27 08:39 24.93109 56.08929 23310 ft 303 kts 330°
2026-04-27 08:39 24.95014 56.07990 22892 ft 301 kts 330°
2026-04-27 08:40 24.96893 56.06983 22443 ft 295 kts 320°
2026-04-27 08:40 24.98403 56.05519 21966 ft 289 kts 309°
2026-04-27 08:40 24.99764 56.03897 21566 ft 286 kts 308°
2026-04-27 08:40 25.01098 56.02262 21152 ft 284 kts 308°
2026-04-27 08:41 25.02403 56.00662 20720 ft 284 kts 308°
2026-04-27 08:41 25.03721 55.99047 20290 ft 283 kts 308°
2026-04-27 08:41 25.05036 55.97438 19863 ft 282 kts 308°
2026-04-27 08:41 25.06356 55.95821 19431 ft 282 kts 308°
2026-04-27 08:42 25.07672 55.94208 19008 ft 282 kts 308°
2026-04-27 08:42 25.08969 55.92617 18598 ft 281 kts 308°
2026-04-27 08:42 25.10279 55.91009 18184 ft 281 kts 307°
2026-04-27 08:42 25.11586 55.89405 17768 ft 281 kts 307°
2026-04-27 08:43 25.12894 55.87799 17356 ft 281 kts 307°
2026-04-27 08:43 25.14180 55.86219 16955 ft 280 kts 307°
2026-04-27 08:43 25.15470 55.84604 16548 ft 278 kts 302°
2026-04-27 08:43 25.16541 55.82832 16135 ft 276 kts 297°
2026-04-27 08:44 25.17539 55.81039 15749 ft 276 kts 297°
2026-04-27 08:44 25.18542 55.79230 15359 ft 275 kts 297°
2026-04-27 08:44 25.19546 55.77427 15008 ft 273 kts 297°
2026-04-27 08:44 25.20535 55.75650 14667 ft 271 kts 298°
2026-04-27 08:45 25.21515 55.73887 14272 ft 271 kts 298°
2026-04-27 08:45 25.22505 55.72107 13870 ft 272 kts 298°
2026-04-27 08:45 25.23494 55.70333 13485 ft 272 kts 298°
2026-04-27 08:45 25.24493 55.68549 13099 ft 272 kts 298°
2026-04-27 08:46 25.25487 55.66770 12715 ft 273 kts 298°
2026-04-27 08:46 25.26487 55.64982 12327 ft 273 kts 298°
2026-04-27 08:46 25.27468 55.63218 11945 ft 273 kts 299°
2026-04-27 08:46 25.28341 55.61359 11526 ft 271 kts 285°
2026-04-27 08:47 25.28579 55.59312 11088 ft 271 kts 265°
2026-04-27 08:47 25.28102 55.57304 10640 ft 274 kts 245°
2026-04-27 08:47 25.26947 55.55606 10183 ft 280 kts 224°
2026-04-27 08:47 25.25274 55.54510 9723 ft 289 kts 202°
2026-04-27 08:48 25.23253 55.54212 9251 ft 299 kts 178°
2026-04-27 08:48 25.21231 55.54870 8752 ft 309 kts 153°
2026-04-27 08:48 25.19599 55.56449 8234 ft 316 kts 126°
2026-04-27 08:48 25.18717 55.58658 7769 ft 318 kts 100°
2026-04-27 08:49 25.18573 55.61068 7392 ft 314 kts 92°
2026-04-27 08:49 25.18131 55.63405 7050 ft 313 kts 109°
2026-04-27 08:49 25.17228 55.65594 6655 ft 314 kts 117°
2026-04-27 08:49 25.16144 55.67693 6252 ft 315 kts 120°
2026-04-27 08:50 25.15019 55.69734 5861 ft 315 kts 121°
2026-04-27 08:50 25.13868 55.71797 5473 ft 315 kts 121°
2026-04-27 08:50 25.12723 55.73848 5078 ft 316 kts 121°
2026-04-27 08:50 25.11570 55.75910 4681 ft 316 kts 121°
2026-04-27 08:51 25.10413 55.77973 4279 ft 316 kts 121°
2026-04-27 08:51 25.09258 55.80034 3885 ft 316 kts 121°
2026-04-27 08:51 25.08013 55.82053 3460 ft 316 kts 133°
2026-04-27 08:51 25.06248 55.83471 3010 ft 314 kts 159°
2026-04-27 08:52 25.04167 55.83936 2878 ft 303 kts 184°
2026-04-27 08:52 25.02105 55.83402 2871 ft 307 kts 208°
2026-04-27 08:52 25.00456 55.82009 2868 ft 299 kts 232°
2026-04-27 08:52 24.99465 55.80004 2863 ft 296 kts 256°
2026-04-27 08:53 24.99291 55.77770 2860 ft 295 kts 278°
2026-04-27 08:53 24.99937 55.75623 2852 ft 295 kts 300°
2026-04-27 08:53 25.01313 55.73965 2845 ft 296 kts 324°
2026-04-27 08:53 25.03193 55.73044 2852 ft 298 kts 340°
2026-04-27 08:54 25.05041 55.72060 2848 ft 296 kts 320°
2026-04-27 08:54 25.06393 55.70381 2858 ft 295 kts 304°
2026-04-27 08:54 25.07506 55.68448 2854 ft 295 kts 301°
2026-04-27 08:54 25.08576 55.66507 2853 ft 295 kts 301°
2026-04-27 08:55 25.09644 55.64578 2851 ft 295 kts 301°
2026-04-27 08:55 25.10707 55.62662 2852 ft 294 kts 301°
2026-04-27 08:55 25.11776 55.60741 2850 ft 295 kts 301°
2026-04-27 08:55 25.12864 55.58791 2848 ft 295 kts 301°
2026-04-27 08:56 25.13935 55.56868 2847 ft 294 kts 301°
2026-04-27 08:56 25.15002 55.54951 2844 ft 289 kts 301°
2026-04-27 08:56 25.16037 55.53098 2840 ft 274 kts 301°
2026-04-27 08:56 25.17003 55.51357 2837 ft 260 kts 301°
2026-04-27 08:57 25.18798 55.48131 2832 ft 231 kts 301°
2026-04-27 08:57 25.19615 55.46646 2835 ft 224 kts 301°
2026-04-27 08:57 25.20441 55.45167 2838 ft 224 kts 301°
2026-04-27 08:58 25.21255 55.43697 2838 ft 224 kts 301°
2026-04-27 08:58 25.22074 55.42223 2836 ft 223 kts 301°
2026-04-27 08:58 25.22881 55.40768 2836 ft 223 kts 301°
2026-04-27 08:58 25.23693 55.39306 2837 ft 223 kts 301°
2026-04-27 08:59 25.24507 55.37831 2833 ft 223 kts 301°
2026-04-27 08:59 25.25318 55.36369 2826 ft 223 kts 301°
2026-04-27 08:59 25.26137 55.34895 2822 ft 223 kts 301°
2026-04-27 08:59 25.26939 55.33424 2815 ft 223 kts 296°
2026-04-27 09:00 25.27368 55.31802 2784 ft 223 kts 283°
2026-04-27 09:00 25.27731 55.30123 2786 ft 223 kts 283°
2026-04-27 09:00 25.28109 55.28460 2786 ft 222 kts 285°
2026-04-27 09:00 25.28537 55.26810 2784 ft 223 kts 287°
2026-04-27 09:01 25.28972 55.25171 2783 ft 223 kts 287°
2026-04-27 09:01 25.29405 55.23537 2781 ft 222 kts 287°
2026-04-27 09:01 25.29843 55.21897 2783 ft 222 kts 287°
2026-04-27 09:01 25.30277 55.20270 2781 ft 222 kts 287°
2026-04-27 09:02 25.30712 55.18642 2780 ft 221 kts 287°
2026-04-27 09:02 25.31152 55.16998 2776 ft 221 kts 287°
2026-04-27 09:02 25.31583 55.15377 2774 ft 221 kts 287°
2026-04-27 09:02 25.32022 55.13736 2772 ft 222 kts 287°
2026-04-27 09:03 25.32457 55.12103 2771 ft 222 kts 287°
2026-04-27 09:03 25.32888 55.10484 2771 ft 221 kts 287°
2026-04-27 09:03 25.33327 55.08837 2768 ft 221 kts 287°
2026-04-27 09:03 25.33754 55.07222 2768 ft 221 kts 287°
2026-04-27 09:04 25.34183 55.05588 2763 ft 220 kts 287°
2026-04-27 09:04 25.34609 55.03975 2762 ft 220 kts 287°
2026-04-27 09:04 25.35041 55.02337 2755 ft 221 kts 287°
2026-04-27 09:04 25.35471 55.00713 2755 ft 220 kts 287°
2026-04-27 09:05 25.35901 54.99088 2754 ft 220 kts 287°
2026-04-27 09:05 25.36124 54.97432 2720 ft 222 kts 264°
2026-04-27 09:05 25.35542 54.95861 2668 ft 226 kts 232°
2026-04-27 09:05 25.34232 54.94870 2604 ft 233 kts 198°
2026-04-27 09:06 25.32607 54.94866 2524 ft 240 kts 162°
2026-04-27 09:06 25.31251 54.95939 2423 ft 243 kts 123°
2026-04-27 09:06 25.30732 54.97676 2329 ft 240 kts 85°
2026-04-27 09:06 25.31174 54.99383 2253 ft 235 kts 59°
2026-04-27 09:07 25.31951 55.01011 2236 ft 239 kts 60°
2026-04-27 09:07 25.32663 55.02681 2231 ft 239 kts 63°
2026-04-27 09:07 25.33335 55.04361 2229 ft 239 kts 64°
2026-04-27 09:07 25.33800 55.06137 2190 ft 243 kts 88°
2026-04-27 09:08 25.33571 55.07978 2165 ft 244 kts 104°
2026-04-27 09:08 25.33013 55.09756 2135 ft 245 kts 121°
2026-04-27 09:08 25.31860 55.11102 2088 ft 241 kts 151°
2026-04-27 09:08 25.30311 55.11671 2031 ft 236 kts 180°
2026-04-27 09:09 25.28701 55.11382 1970 ft 230 kts 208°
2026-04-27 09:09 25.27444 55.10357 1914 ft 224 kts 234°
2026-04-27 09:09 25.26743 55.08874 1867 ft 219 kts 259°
2026-04-27 09:09 25.26689 55.07206 1823 ft 216 kts 283°
2026-04-27 09:10 25.27083 55.05600 1806 ft 217 kts 287°
2026-04-27 09:10 25.27516 55.03992 1801 ft 218 kts 287°
2026-04-27 09:10 25.27941 55.02389 1800 ft 218 kts 287°
2026-04-27 09:10 25.28369 55.00778 1799 ft 218 kts 287°
2026-04-27 09:11 25.28827 54.99201 1785 ft 218 kts 296°
2026-04-27 09:11 25.29747 54.97868 1750 ft 218 kts 320°
2026-04-27 09:11 25.31095 54.97098 1712 ft 220 kts 345°
2026-04-27 09:11 25.32625 54.97102 1734 ft 223 kts 16°
2026-04-27 09:12 25.33910 54.98047 1930 ft 230 kts 49°
2026-04-27 09:12 25.34567 54.99660 2148 ft 237 kts 83°
2026-04-27 09:12 25.34336 55.01527 2398 ft 255 kts 109°
2026-04-27 09:12 25.33685 55.03394 2651 ft 261 kts 111°